Simultaneous Nadir Overpasses (SNOs) Predictions

Prediction of SNOs between AQUA and NOAA-19 Satellite Orbit:

Table of predicted SNOs for the next 14.0 days since TLE Epoch: 3/21/2014
Index Date (AQUA) Time (AQUA) Lat,Lon (AQUA) SZA (AQUA ) Date (NOAA-19) Time (NOAA-19) Lat,Lon (NOAA-19) SZA (NOAA-19 ) Distance(km) Time Diff (sec)
1 03/23/2014 04:42:34 -73.26, -75.09 107.72 03/23/2014 04:42:38 -73.26, -75.08 107.72 0.40 4
2 03/25/2014 09:27:05 -73.88,-147.49 107.93 03/25/2014 09:26:49 -73.89,-147.56 107.91 2.38 16
3 03/25/2014 10:16:03 72.32, 23.28 70.41 03/25/2014 10:17:15 72.33, 23.23 70.42 2.04 72
4 03/27/2014 14:11:31 -74.28, 140.52 108.37 03/27/2014 14:10:55 -74.29, 140.46 108.35 2.11 36
5 03/27/2014 15:00:30 72.79, -48.67 70.04 03/27/2014 15:01:22 72.80, -48.72 70.04 1.78 52
6 03/29/20
